Tracking 19170 objects as of 23-May-2018
HD Live streaming from Space Station
objects crossing your sky now

SL-23 DEB

Track SL-23 DEB now!


NORAD ID: 35577
Int'l Code: 2009-009C
Perigee: 1,255.7 km
Apogee: 35,902.1 km
Inclination: 35.4 °
Period: 653.7 minutes
Semi major axis: 24949 km
RCS: 0.1999 m2 (medium)
Launch date: February 26, 2009
Source: Commonwealth of Independent States (former USSR) (CIS)
Launch site: TYURATAM MISSILE AND SPACE COMPLEX (TTMTR)

Note: This is SATELLITE DEBRIS
aabbcc
Your satellite tracking list
Your tracking list is empty




NASA's NSSDC Master Catalog

Two Line Element Set (TLE):
1 35577U 09009C   18142.87265378 -.00000165  00000-0  00000+0 0  9999
2 35577  35.4228 305.7967 6943184 150.6337  24.5921  2.20292373 72844
Source of the keplerian elements: AFSPC